Terminal Aerodrome Forecast
Issued by NWS Spokane, WA

Home | Current Version | Previous Version | Text Only | Print | Product List | Glossary On
Versions: 1 2 3 4 5 6 7 8 9 10 11 12 13 14 15 16 17 18 19 20 21 22 23 24
000
FTUS46 KOTX 311737
TAFGEG
TAF
KGEG 311737Z 3118/0118 07005KT P6SM SKC
     FM312000 22008G15KT P6SM FEW250
     FM010300 20005KT P6SM FEW250
     FM010800 14005KT P6SM SKC=

USA.gov is the U.S. government's official web portal to all federal, state and local government web resources and services.